Flag for Uruguay Weather past 2 weeks in Maldonado, Uruguay

Now
72 °F

Rain. Mostly cloudy.


Feels Like: 69 °F
Forecast: 70 / 82 °F
Wind: 12 mph from East

Location: Capitan Corbeta

Current Time: Mar 4, 2015 at 5:27:18 AM

Latest Report: Mar 4, 2015 at 2:00 AM


Visibility: 3 mi

Pressure: 29.86 "Hg

Humidity: 88%

Dew point: 68 °F

Location of MaldonadoLocation

Historic Weather in Maldonado — Graph

°F

Maldonado temperature yesterday

Maximum temperature yesterday: 88 °F (at 1:00 PM)
Minimum temperature yesterday: 64 °F (at 7:00 AM)
Average temperature yesterday: 75 °F

Past Weeks' High & Low Weather Summary

 TemperatureHumidityPressure
High88 °F (Feb 24, 6:00 PM)94% (Feb 19, 4:00 AM)30.18 "Hg (Feb 19, 4:00 AM)
Low54 °F (Feb 28, 8:00 AM)35% (Feb 17, 3:00 PM)29.62 "Hg (Feb 18, 7:00 PM)
Average72 °F72%29.94 "Hg
* Reported Feb 17 2:00 AM — Mar 4 2:00 AM, Maldonado, Weather by CustomWeather, © 2015

Note: Actual official high and low records may vary slightly from our data, if they occured in-between our weather recording intervals... More about our weather records

Advertising

Maldonado weather history for previous 24 hours

 ConditionsComfort  
Time TempWeatherWind HumidityBarometerVisibility
2:00 AM
Wed, Mar 4
72 °FRain. Mostly cloudy.12 mph88%29.86 "Hg3 mi
1:00 AM70 °FRain. Mostly cloudy.14 mph88%29.86 "Hg3 mi
12:00 AM70 °FRain. Mostly cloudy.8 mph88%29.86 "Hg4 mi
11:00 PM
Tue, Mar 3
70 °FLight rain. Mostly cloudy.6 mph88%29.86 "Hg5 mi
10:00 PM70 °FThunderstorms. Mostly cloudy.6 mph88%29.86 "Hg5 mi
9:00 PM70 °FThunderstorms. Mostly cloudy.6 mph88%29.86 "Hg5 mi
8:00 PM72 °FMore clouds than sun.15 mph88%29.86 "HgN/A
7:00 PM70 °FRain. Mostly cloudy.20 mph88%29.89 "Hg2 mi
6:00 PM70 °FThunderstorms. Low clouds.26 mph88%29.92 "Hg2 mi
5:00 PM82 °FBroken clouds.9 mph58%29.83 "HgN/A
4:00 PM86 °FBroken clouds.10 mph49%29.83 "HgN/A
3:00 PM88 °FBroken clouds.12 mph46%29.86 "HgN/A
2:00 PM86 °FPartly sunny.12 mph52%29.89 "HgN/A
1:00 PM88 °FPartly sunny.5 mph46%29.89 "HgN/A
12:00 PM82 °FPartly sunny.5 mph55%29.89 "HgN/A
11:00 AM81 °FPartly sunny.5 mph58%29.89 "HgN/A
10:00 AM77 °FSunny.5 mph74%29.89 "Hg10 mi
9:00 AM72 °FSunny.6 mph83%29.92 "Hg10 mi
8:00 AM66 °FSunny.7 mph88%29.89 "Hg10 mi
7:00 AM64 °FClear.3 mph88%29.86 "Hg10 mi
Weather by CustomWeather, © 2015

See weather overviewHow to use our weather pages